Weather History for Delaware, OH

Change the Weather History Date:

Saturday, August 24, 2013

  Actual Average Record
Temperature  
Mean Temperature 65 °F -  
Max Temperature 80 °F 81 °F 96 °F (1954)
Min Temperature 50 °F 57 °F 43 °F (1971)
Growing Degree Days 15 (Base 50)    
Moisture  
Dew Point 53 °F    
Average Humidity 69    
Maximum Humidity 94    
Minimum Humidity 34    
Precipitation  
Precipitation 0.00 in - - ()
Sea Level Pressure  
Sea Level Pressure 30.27 in    
Wind  
Wind Speed 2 mph (East)    
Max Wind Speed 10 mph    
Max Gust Speed -    
Visibility 10 miles    
Events      
Averages and records for this station are not official NWS values.
T = Trace of Precipitation, MM = Missing Value Source: NWS Daily Summary

Daily Weather History Graph

Daily Weather History Graph

Search for Another Location

Airport:

Trip Planner

Search our weather history database for the weather conditions in past years. The results will help you decide how hot, cold, wet, or windy it might be!

Date:

Astronomy

Aug. 24, 2013 Rise Set
Actual Time 6:52 AM EDT 8:16 PM EDT
Civil Twilight 6:24 AM EDT 8:44 PM EDT
Nautical Twilight 5:49 AM EDT 9:18 PM EDT
Astronomical Twilight 5:13 AM EDT 9:54 PM EDT
Moon 10:09 PM EDT (8/24) 10:51 AM EDT (8/24)
Length of Visible Light 14h 20m
Length of Day
13h 23m
Waning Gibbous, 84% of the Moon is Illuminated
Aug 24
Waning Gibbous
Aug 28
Last Quarter
Sep 5
New
Sep 12
First Quarter
Sep 19
Full

Hourly Weather History & Observations

Time (EDT) Temp. Heat Index Dew Point Humidity Pressure Visibility Wind Dir Wind Speed Gust Speed Precip Events Conditions
12:17 AM 55.4 °F - 53.6 °F 94% 30.19 in 10.0 mi Calm Calm - N/A   Clear
12:37 AM 55.4 °F - 53.6 °F 94% 30.19 in 10.0 mi Calm Calm - N/A   Clear
12:57 AM 55.4 °F - 51.8 °F 88% 30.20 in 10.0 mi Calm Calm - N/A   Clear
1:17 AM 53.6 °F - 51.8 °F 94% 30.20 in 10.0 mi Calm Calm - N/A   Clear
1:37 AM 53.6 °F - 51.8 °F 94% 30.20 in 10.0 mi Calm Calm - N/A   Clear
1:57 AM 53.6 °F - 51.8 °F 94% 30.20 in 10.0 mi Calm Calm - N/A   Clear
2:17 AM 53.6 °F - 51.8 °F 94% 30.21 in 10.0 mi Calm Calm - N/A   Clear
2:36 AM 53.6 °F - 51.8 °F 94% 30.20 in 10.0 mi Calm Calm - N/A   Clear
2:57 AM 53.6 °F - 51.8 °F 94% 30.20 in 10.0 mi Calm Calm - N/A   Clear
3:17 AM 51.8 °F - 50.0 °F 94% 30.21 in 10.0 mi Calm Calm - N/A   Clear
3:37 AM 51.8 °F - 50.0 °F 94% 30.21 in 10.0 mi Calm Calm - N/A   Clear
3:57 AM 51.8 °F - 50.0 °F 94% 30.21 in 10.0 mi Calm Calm - N/A   Clear
4:17 AM 51.8 °F - 50.0 °F 94% 30.21 in 10.0 mi Calm Calm - N/A   Clear
4:36 AM 51.8 °F - 50.0 °F 94% 30.22 in 10.0 mi Calm Calm - N/A   Clear
4:57 AM 51.8 °F - 50.0 °F 94% 30.22 in 10.0 mi Calm Calm - N/A   Clear
5:17 AM 51.8 °F - 50.0 °F 94% 30.23 in 10.0 mi Calm Calm - N/A   Clear
5:36 AM 51.8 °F - 50.0 °F 94% 30.23 in 10.0 mi Calm Calm - N/A   Clear
5:57 AM 50.0 °F - 48.2 °F 94% 30.23 in 10.0 mi Calm Calm - N/A   Clear
6:17 AM 50.0 °F - 48.2 °F 94% 30.24 in 10.0 mi Calm Calm - N/A   Clear
6:36 AM 50.0 °F - 48.2 °F 94% 30.25 in 10.0 mi Calm Calm - N/A   Clear
6:57 AM 50.0 °F - 48.2 °F 94% 30.26 in 10.0 mi Calm Calm - N/A   Clear
7:17 AM 50.0 °F - 48.2 °F 94% 30.27 in 10.0 mi Calm Calm - N/A   Clear
7:36 AM 51.8 °F - 50.0 °F 94% 30.28 in 10.0 mi Calm Calm - N/A   Clear
7:57 AM 53.6 °F - 51.8 °F 94% 30.29 in 10.0 mi Calm Calm - N/A   Clear
8:17 AM 55.4 °F - 53.6 °F 94% 30.29 in 10.0 mi Calm Calm - N/A   Clear
8:36 AM 59.0 °F - 53.6 °F 82% 30.30 in 10.0 mi Calm Calm - N/A   Clear
8:57 AM 62.6 °F - 53.6 °F 72% 30.30 in 10.0 mi Calm Calm - N/A   Clear
9:17 AM 64.4 °F - 53.6 °F 68% 30.31 in 10.0 mi East 3.5 mph - N/A   Clear
9:37 AM 66.2 °F - 53.6 °F 64% 30.31 in 10.0 mi East 4.6 mph - N/A   Clear
9:57 AM 68.0 °F - 55.4 °F 64% 30.31 in 10.0 mi East 5.8 mph - N/A   Clear
10:17 AM 69.8 °F - 55.4 °F 60% 30.31 in 10.0 mi East 3.5 mph - N/A   Clear
10:37 AM 71.6 °F - 55.4 °F 57% 30.32 in 10.0 mi East 3.5 mph - N/A   Clear
10:57 AM 71.6 °F - 55.4 °F 57% 30.32 in 10.0 mi East 6.9 mph - N/A   Clear
11:17 AM 73.4 °F - 55.4 °F 53% 30.32 in 10.0 mi East 10.4 mph - N/A   Clear
11:37 AM 75.2 °F - 55.4 °F 50% 30.31 in 10.0 mi ESE 8.1 mph - N/A   Clear
11:57 AM 77.0 °F - 55.4 °F 47% 30.31 in 10.0 mi East 5.8 mph - N/A   Clear
12:17 PM 77.0 °F - 53.6 °F 44% 30.31 in 10.0 mi East 8.1 mph - N/A   Clear
12:37 PM 78.8 °F - 53.6 °F 42% 30.31 in 10.0 mi ENE 5.8 mph - N/A   Clear
12:57 PM 78.8 °F - 53.6 °F 42% 30.31 in 10.0 mi NE 6.9 mph - N/A   Clear
1:17 PM 78.8 °F - 50.0 °F 36% 30.30 in 10.0 mi East 6.9 mph - N/A   Clear
1:37 PM 78.8 °F - 51.8 °F 39% 30.30 in 10.0 mi Calm Calm - N/A   Clear
1:57 PM 80.6 °F - 51.8 °F 37% 30.30 in 10.0 mi Calm Calm - N/A   Clear
2:17 PM 80.6 °F - 51.8 °F 37% 30.29 in 10.0 mi ESE 4.6 mph - N/A   Clear
2:37 PM 80.6 °F 80.3 °F 53.6 °F 39% 30.29 in 10.0 mi ENE 5.8 mph - N/A   Clear
2:57 PM 80.6 °F - 51.8 °F 37% 30.28 in 10.0 mi NE 4.6 mph - N/A   Scattered Clouds
3:17 PM 80.6 °F - 51.8 °F 37% 30.28 in 10.0 mi SSE 4.6 mph - N/A   Clear
3:37 PM 80.6 °F 80.3 °F 53.6 °F 39% 30.28 in 10.0 mi North 3.5 mph - N/A   Scattered Clouds
3:57 PM 80.6 °F - 51.8 °F 37% 30.27 in 10.0 mi South 3.5 mph - N/A   Mostly Cloudy
4:16 PM 80.6 °F - 50.0 °F 34% 30.27 in 10.0 mi Calm Calm - N/A   Scattered Clouds
4:37 PM 80.6 °F - 50.0 °F 34% 30.27 in 10.0 mi Calm Calm - N/A   Clear
4:57 PM 80.6 °F - 50.0 °F 34% 30.27 in 10.0 mi Calm Calm - N/A   Clear
5:16 PM 80.6 °F - 50.0 °F 34% 30.27 in 10.0 mi Calm Calm - N/A   Clear
5:37 PM 80.6 °F - 50.0 °F 34% 30.27 in 10.0 mi Calm Calm - N/A   Clear
5:57 PM 78.8 °F - 50.0 °F 36% 30.26 in 10.0 mi Calm Calm - N/A   Clear
6:16 PM 78.8 °F - 53.6 °F 42% 30.27 in 10.0 mi East 3.5 mph - N/A   Clear
6:37 PM 78.8 °F - 53.6 °F 42% 30.27 in 10.0 mi NNE 6.9 mph - N/A   Clear
6:57 PM 78.8 °F - 53.6 °F 42% 30.27 in 10.0 mi East 3.5 mph - N/A   Clear
7:16 PM 77.0 °F - 53.6 °F 44% 30.27 in 10.0 mi ENE 4.6 mph - N/A   Clear
7:37 PM 75.2 °F - 53.6 °F 47% 30.27 in 10.0 mi East 4.6 mph - N/A   Clear
7:57 PM 73.4 °F - 53.6 °F 50% 30.27 in 10.0 mi ENE 4.6 mph - N/A   Clear
8:16 PM 69.8 °F - 55.4 °F 60% 30.27 in 10.0 mi ENE 3.5 mph - N/A   Clear
8:37 PM 64.4 °F - 59.0 °F 83% 30.27 in 10.0 mi East 3.5 mph - N/A   Clear
8:57 PM 62.6 °F - 59.0 °F 88% 30.28 in 10.0 mi Calm Calm - N/A   Clear
9:17 PM 62.6 °F - 59.0 °F 88% 30.29 in 10.0 mi East 3.5 mph - N/A   Clear
9:37 PM 62.6 °F - 59.0 °F 88% 30.30 in 10.0 mi ENE 3.5 mph - N/A   Mostly Cloudy
9:57 PM 62.6 °F - 59.0 °F 88% 30.30 in 10.0 mi East 4.6 mph - N/A   Scattered Clouds
10:17 PM 62.6 °F - 57.2 °F 82% 30.30 in 10.0 mi East 3.5 mph - N/A   Clear
10:37 PM 60.8 °F - 57.2 °F 88% 30.30 in 10.0 mi East 4.6 mph - N/A   Clear
10:57 PM 62.6 °F - 55.4 °F 77% 30.30 in 10.0 mi East 3.5 mph - N/A   Clear
11:17 PM 60.8 °F - 55.4 °F 82% 30.30 in 10.0 mi East 4.6 mph - N/A   Clear
11:37 PM 62.6 °F - 55.4 °F 77% 30.29 in 10.0 mi East 4.6 mph - N/A   Clear
11:57 PM 59.0 °F - 55.4 °F 88% 30.30 in 10.0 mi East 4.6 mph - N/A   Clear